Retour au catalogue

FENGYUN 1C DEB

ActifSSO
NORAD 33637·DEBRIS·🇨🇳 China

Lancé May 10, 1999 depuis Taiyuan Satellite Launch Center

Loading…

Prochains Passages (prochaines 24 heures)

TLE

PériméSource: Space-Track

Époque: Aug 25, 2026, 22:44 UTC

1 33637U 99025DDW 26237.94751058  .00002783  00000-0  89240-3 0  9992
2 33637  98.4710 284.4989 0082030 106.9211 254.0989 14.38335740685194

Suivez FENGYUN 1C DEB en temps réel avec AllMySat

Download on the App Store